FLOCK 3P-22 (41958 NORAD) Tracking and Keplerian Element Data

This shows tracking and keplerian element data for the satellite.

Feedback or suggestion? Click here.




ElementValue
Catalog41958
NameFLOCK 3P-22
Epoch Orbit5526
Epoch Day45.60358689
Epoch Year2018
RAAN111.0181
Inclination97.4655
Eccentricity0.0010334
Argument of Perigee67.3985
Mean Anonmoly292.8344
Mean Motion15.23717749
Decay Rate2.564E-05
L11 41958U 17008L 18045.60358689 .00002564 00000-0 10962-3 0 9994
L22 41958 97.4655 111.0181 0010334 67.3985 292.8344 15.23717749 55263

Live tracking and technical data element details for FLOCK 3P-22 (NORAD 41958). FLOCK 3P-22 can be tracked NOW for your location showing map with azimuth and elevation plus other details from your city location.

Track the satellite on the map from your city or location and see movement details for azimuth, elevation, latitude, longitude, range, height, and movement on the map or in text.







IsCatalogInMostPopularTable: catalog: 41958, numindb: 110
Update: records affected: 1



GetName: 41958 FLOCK 3P-22

Hit Count: updated at: Mon, 19 Nov 2018 13:04:59 GMT